Regional Weather Roundup
Issued by NWS

Home | Current Version | Previous Version | Graphics & Text | Print | Product List | Glossary On
Versions: 1 2 3 4 5 6 7 8 9 10 11 12 13 14 15 16 17 18 19 20 21 22 23 24 25 26 27 28 29 30 31 32 33 34 35 36 37 38 39 40 41 42 43 44 45 46 47 48 49 50
000
ASUS43 KLOT 311900
RWRIL

ILLINOIS REGIONAL WEATHER ROUNDUP
NATIONAL WEATHER SERVICE CHICAGO/ROMEOVILLE IL
200 PM CDT FRI OCT 31 2014

NOTE: "FAIR" INDICATES FEW OR NO CLOUDS BELOW 12,000 FEET WITH NO
SIGNIFICANT WEATHER AND/OR OBSTRUCTIONS TO VISIBILITY.

* THESE STATIONS ARE NOT UNDER NWS QUALITY CONTROL. THEY ALSO MAY NOT
  REPORT WEATHER SUCH AS PRECIPITATION OR FOG.

ILZ001-002-007-009-015-016-024-312000-
NORTHWEST ILLINOIS

CITY           SKY/WX    TMP DP  RH WIND       PRES   REMARKS
MOLINE         MOSUNNY   43  20  39 N16G26    30.33S
STERLING*      MOSUNNY   43  19  39 N21G29    30.31S
SAVANNA*       MOSUNNY   44  17  33 N20G31    30.32S
$$

ILZ003-004-008-010-011-017-018-312000-
NORTH CENTRAL ILLINOIS

CITY           SKY/WX    TMP DP  RH WIND       PRES   REMARKS
ROCKFORD       PTSUNNY   40  20  44 N23G31    30.31R
FREEPORT*      PTSUNNY   40  21  46 N22G31    30.33S
ROCHELLE*      CLOUDY    39  20  47 N26G36    30.27S WCI  28
DE KALB*       CLOUDY    37  20  51 N25G40    30.24S WCI  25
$$

ILZ005-006-012>014-019>023-312000-
NORTHEAST ILLINOIS

CITY           SKY/WX    TMP DP  RH WIND       PRES   REMARKS
CHICAGO-OHARE  PTSUNNY   40  23  50 N33G47    30.17R
CHICAGO-MIDWAY PTSUNNY   43  26  51 N37G46    30.15R
AURORA         PTSUNNY   41  20  43 N38G49    30.20R
LANSING*       LGT RAIN  38  33  84 N28G38    30.10S WCI  26
WAUKEGAN       CLOUDY    37  24  59 N25G39    30.19R WCI  25
DUPAGE AIRPORT CLOUDY    40  22  48 N32G39    30.19R
WHEELING       CLOUDY    40  23  50 N26G43    30.20R
MORRIS*        PTSUNNY   42  25  51 N18G26    30.19R
$$

LMZ740>746-312000-
SOUTHERN LAKE MICHIGAN

STATION/POSITION SKY/WX   TEMP    WIND        PRES    VSBY  WAVE
                          AIR SEA DIR/SP/G                  HT/PER
                          (F)     (DEG/KT/KT) (MB)    (MI)  (FT/S)
SOUTHERN BUOY              39 49  350/ 37/ 45 1018.7R        17/11
WAUKEGAN HARBOR            38     350/ 25/ 34   N/A
HARRISON CRIB              38     340/ 47/ 56   N/A
BURNHAM HARBOR             39     320/ 25/ 30   N/A
CALUMET HARBOR             38     330/ 25/ 45 1018.5R
MICHIGAN CITY              40     350/ 44/ 51   N/A
$$

ILZ025>027-034>036-040-047-049-050-058-095>099-312000-
WEST-CENTRAL ILLINOIS

CITY           SKY/WX    TMP DP  RH WIND       PRES   REMARKS
QUINCY         SUNNY     43  21  41 N23       30.34F
GALESBURG*     MOSUNNY   43  22  43 N28G38    30.31S
MACOMB*        MOSUNNY   43  21  42 N21G26    30.34F
$$

ILZ028>032-037-038-041>044-048-051>054-059>061-312000-
CENTRAL ILLINOIS

CITY           SKY/WX    TMP DP  RH WIND       PRES   REMARKS
PONTIAC        PTSUNNY   43  25  49 NW31G39   30.21S
DECATUR        CLOUDY    43  27  53 N23G36    30.21R
PEORIA         MOSUNNY   45  20  36 N15G25    30.27R
LINCOLN*       MOSUNNY   46  23  40 N21G30    30.24S
SPRINGFIELD    MOSUNNY   46  23  40 NW21G32   30.26S
TAYLORVILLE    NOT AVBL
$$

ILZ033-039-045-046-055>057-062-063-312000-
EAST-CENTRAL ILLINOIS

CITY           SKY/WX    TMP DP  RH WIND       PRES   REMARKS
CHAMPAIGN      CLOUDY    41  26  55 NW29G45   30.16R
MATTOON        CLOUDY    41  26  55 N28G40    30.15S
$$

ILZ079-100>102-312000-
SOUTHWEST ILLINOIS

CITY           SKY/WX    TMP DP  RH WIND       PRES   REMARKS
ALTON          PTSUNNY   45  19  36 NW20G26   30.28F
CAHOKIA*       MOSUNNY   46  27  47 N17G26    30.29S
SPARTA*        MOSUNNY   44  27  51 NW15G26   30.26R
$$

ILZ064>066-069>071-074>076-080>082-084>086-088>090-092>094-312000-
SOUTH-CENTRAL ILLINOIS

CITY           SKY/WX    TMP DP  RH WIND       PRES   REMARKS
CARBONDALE     MOSUNNY   47  23  38 N22G32    30.21S
CAIRO*         MOSUNNY   52  27  37 NW21G29   30.18S
MARION         MOSUNNY   46  25  42 MISG      30.20S
MT. VERNON     CLOUDY    43  27  52 N8        30.21S
SALEM*         CLOUDY    44  29  55 NW28G35   30.22R
METROPOLIS*    SUNNY     49  25  40 NW22G32   30.16R
$$

ILZ067-068-072-073-078-083-087-091-312000-
SOUTHEAST ILLINOIS

CITY           SKY/WX    TMP DP  RH WIND       PRES   REMARKS
LAWRENCEVILLE  CLOUDY    42  30  62 NW23G33   30.13R
FAIRFIELD*     CLOUDY    42  28  57 NW13G23   30.17S
HARRISBURG*    MOSUNNY   46  27  46 N20G32    30.19R
ROBINSON*      CLOUDY    43  32  66 N20G32    30.14S
CARMI*         CLOUDY    46  30  54 NW29G36   30.15S
$$

ABBREVIATIONS USED IN REMARKS
   TC - TEMPERATURE IN CELSIUS
  WCI - WIND CHILL INDEX
   HX - HEAT INDEX
  VSB - VISIBILITY
$$




USA.gov is the U.S. government's official web portal to all federal, state and local government web resources and services.